Weather History for KOZR - October, 2013

Change the Weather History Date:

Sunday, October 6, 2013

  Actual Average Record
Temperature  
Mean Temperature 74 °F -  
Max Temperature 81 °F 77 °F 89 °F (1998)
Min Temperature 66 °F 58 °F 46 °F (2010)
Cooling Degree Days 8    
Growing Degree Days 24 (Base 50)    
Moisture  
Dew Point 71 °F    
Average Humidity 92    
Maximum Humidity 100    
Minimum Humidity 71    
Precipitation  
Precipitation 0.13 in - - ()
Sea Level Pressure  
Sea Level Pressure 29.91 in    
Wind  
Wind Speed 5 mph (ESE)    
Max Wind Speed 12 mph    
Max Gust Speed -    
Visibility 10 miles    
Events Rain    
Averages and records for this station are not official NWS values.
T = Trace of Precipitation, MM = Missing Value Source: NWS Daily Summary

Daily Weather History Graph

Daily Weather History Graph

Search for Another Location

Airport or City:

Trip Planner

Search our weather history database for the weather conditions in past years. The results will help you decide how hot, cold, wet, or windy it might be!

Date:

Astronomy

Oct. 06, 2013 Rise Set
Actual Time 6:39 AM CDT 6:21 PM CDT
Civil Twilight 6:15 AM CDT 6:45 PM CDT
Nautical Twilight 5:47 AM CDT 7:13 PM CDT
Astronomical Twilight 5:19 AM CDT 7:41 PM CDT
Moon 8:15 AM CDT (10/6) 7:30 PM CDT (10/6)
Length of Visible Light 12h 29m
Length of Day
11h 41m
Waxing Crescent, 3% of the Moon is Illuminated
Oct 6
Waxing Crescent
Oct 11
First Quarter
Oct 18
Full
Oct 26
Last Quarter
Nov 3
New

Hourly Weather History & Observations

Time (CDT) Temp. Heat Index Dew Point Humidity Pressure Visibility Wind Dir Wind Speed Gust Speed Precip Events Conditions
12:58 AM 69.6 °F - 67.8 °F 94% 29.98 in 10.0 mi ENE 3.5 mph - N/A   Clear
1:58 AM 69.4 °F - 67.8 °F 95% 29.97 in 10.0 mi ENE 3.5 mph - N/A   Clear
2:58 AM 68.4 °F - 67.3 °F 96% 29.95 in 10.0 mi NE 5.8 mph - N/A   Clear
3:58 AM 68.5 °F - 67.3 °F 96% 29.94 in 10.0 mi ENE 5.8 mph - N/A   Mostly Cloudy
4:58 AM 66.9 °F - 65.8 °F 96% 29.95 in 10.0 mi ENE 3.5 mph - N/A   Clear
5:58 AM 67.3 °F - 66.2 °F 96% 29.95 in 10.0 mi NE 5.8 mph - N/A   Partly Cloudy
6:58 AM 68.4 °F - 67.1 °F 96% 29.96 in 10.0 mi ENE 4.6 mph - N/A   Mostly Cloudy
7:08 AM 68.0 °F - 68.0 °F 100% 29.96 in 10.0 mi ENE 3.5 mph - N/A   Mostly Cloudy
7:28 AM 69.8 °F - 69.8 °F 100% 29.96 in 10.0 mi ENE 4.6 mph - N/A   Overcast
7:58 AM 70.7 °F - 69.4 °F 96% 29.96 in 10.0 mi ENE 4.6 mph - N/A   Overcast
8:03 AM 71.6 °F - 69.8 °F 94% 29.96 in 10.0 mi East 4.6 mph - N/A   Overcast
8:58 AM 73.8 °F - 71.4 °F 92% 29.97 in 10.0 mi SE 8.1 mph - N/A   Overcast
9:38 AM 77.0 °F - 71.6 °F 83% 29.96 in 10.0 mi SE 10.4 mph - N/A   Overcast
9:58 AM 76.8 °F - 72.1 °F 85% 29.96 in 10.0 mi SE 11.5 mph - N/A   Overcast
10:03 AM 77.0 °F - 71.6 °F 83% 29.96 in 10.0 mi SE 9.2 mph - N/A   Overcast
10:33 AM 77.0 °F - 73.4 °F 89% 29.96 in 10.0 mi SSE 9.2 mph - N/A   Light Drizzle
10:58 AM 76.5 °F - 72.9 °F 89% 29.96 in 10.0 mi SE 8.1 mph - 0.00 in Rain Light Rain
11:03 AM 77.0 °F - 73.4 °F 89% 29.96 in 10.0 mi SSE 6.9 mph - N/A   Light Drizzle
11:05 AM 77.0 °F - 73.4 °F 89% 29.95 in 10.0 mi SSE 8.1 mph - N/A   Mostly Cloudy
11:20 AM 77.0 °F - 73.4 °F 89% 29.95 in 10.0 mi SE 8.1 mph - N/A   Mostly Cloudy
11:21 AM 77.0 °F - 73.4 °F 89% 29.95 in 10.0 mi SE 9.2 mph - N/A Rain Light Rain
11:26 AM 77.0 °F - 73.4 °F 89% 29.95 in 10.0 mi SSE 5.8 mph - N/A Rain Light Rain
11:35 AM 77.0 °F - 73.4 °F 89% 29.94 in 10.0 mi SE 6.9 mph - N/A   Scattered Clouds
11:38 AM 77.0 °F - 73.4 °F 89% 29.94 in 10.0 mi SE 8.1 mph - N/A   Light Drizzle
11:49 AM 77.0 °F - 71.6 °F 83% 29.94 in 10.0 mi SE 10.4 mph - N/A   Partly Cloudy
11:58 AM 77.9 °F - 72.0 °F 82% 29.93 in 10.0 mi SE 8.1 mph - 0.00 in   Clear
12:58 PM 81.1 °F 85.0 °F 70.9 °F 71% 29.91 in 10.0 mi ESE 9.2 mph - N/A   Mostly Cloudy
1:58 PM 80.2 °F 83.7 °F 71.1 °F 73% 29.89 in 10.0 mi ESE 6.9 mph - N/A   Mostly Cloudy
2:39 PM 78.8 °F - 69.8 °F 74% 29.89 in 10.0 mi SE 8.1 mph - N/A Rain Light Rain
2:54 PM 77.0 °F - 71.6 °F 83% 29.88 in 10.0 mi SE 5.8 mph - N/A   Scattered Clouds
2:58 PM 76.6 °F - 71.6 °F 84% 29.88 in 10.0 mi SE 4.6 mph - 0.00 in   Scattered Clouds
3:26 PM 77.0 °F - 71.6 °F 83% 29.87 in 10.0 mi SE 4.6 mph - N/A   Light Drizzle
3:58 PM 75.6 °F - 72.1 °F 89% 29.88 in 10.0 mi SE 5.8 mph - 0.00 in Rain Light Rain
4:46 PM 73.4 °F - 71.6 °F 94% 29.87 in 10.0 mi SE 4.6 mph - N/A   Partly Cloudy
4:56 PM 73.4 °F - 71.6 °F 94% 29.88 in 10.0 mi South 4.6 mph - N/A Rain Light Rain
4:58 PM 73.4 °F - 71.6 °F 94% 29.88 in 10.0 mi South 3.5 mph - 0.03 in Rain Light Rain
5:48 PM 73.4 °F - 71.6 °F 94% 29.88 in 10.0 mi South 4.6 mph - N/A Rain Light Rain
5:53 PM 73.4 °F - 71.6 °F 94% 29.88 in 6.0 mi South 4.6 mph - N/A Rain Light Rain
5:58 PM 72.7 °F - 71.4 °F 96% 29.88 in 4.0 mi South 2.3 mph - 0.05 in Rain Light Rain
6:28 PM 71.6 °F - 71.6 °F 100% 29.87 in 10.0 mi ESE 2.3 mph - N/A   Clear
6:31 PM 71.6 °F - 71.6 °F 100% 29.87 in 10.0 mi SE 2.3 mph - N/A   Light Drizzle
6:58 PM 72.0 °F - 71.4 °F 98% 29.86 in 10.0 mi East 2.3 mph - 0.02 in Rain Light Rain
7:45 PM 71.6 °F - 71.6 °F 100% 29.85 in 10.0 mi East 2.3 mph - N/A   Clear
7:58 PM 71.6 °F - 70.9 °F 98% 29.85 in 10.0 mi ENE 3.5 mph - 0.01 in   Clear
8:10 PM 71.6 °F - 71.6 °F 100% 29.86 in 10.0 mi East 3.5 mph - N/A   Light Drizzle
8:58 PM 71.4 °F - 70.9 °F 98% 29.86 in 10.0 mi East 4.6 mph - 0.01 in   Light Drizzle
9:12 PM 71.6 °F - 71.6 °F 100% 29.86 in 10.0 mi East 5.8 mph - N/A   Clear
9:15 PM 71.6 °F - 71.6 °F 100% 29.86 in 10.0 mi East 5.8 mph - N/A   Light Drizzle
9:54 PM 71.6 °F - 71.6 °F 100% 29.86 in 10.0 mi North - - N/A   Scattered Clouds
9:58 PM 71.8 °F - 70.9 °F 97% 29.86 in 10.0 mi Calm Calm - 0.01 in   Scattered Clouds
10:07 PM 71.6 °F - 71.6 °F 100% 29.86 in 10.0 mi Calm Calm - N/A Rain Light Rain
10:28 PM 71.6 °F - 71.6 °F 100% 29.86 in 10.0 mi North 2.3 mph - N/A   Partly Cloudy
10:58 PM 72.1 °F - 71.2 °F 97% 29.85 in 10.0 mi North 1.2 mph - 0.00 in   Mostly Cloudy
11:58 PM 72.3 °F - 71.4 °F 97% 29.86 in 10.0 mi NNW 3.5 mph - N/A   Mostly Cloudy